GW3250 Weather Reports


Display with metric or nautical units.
time (UTC)temp
F
wind
direction
speed
MPH
gust
MPH
rain 1hr
in
rain 24hr
in
rain mn
in
humidity
%
barometer
mb
20260503001838 46 123 0.0 0.0 0.00 0.24 0.24 53 1009.0
20260503001335 46 138 0.0 0.0 0.00 0.24 0.24 52 1009.0
20260503000833 46 114 0.0 0.0 0.00 0.24 0.24 50 1008.9
20260503000330 47 113 1.0 1.0 0.00 0.24 0.24 50 1008.9
20260502235827 47 113 2.0 2.0 0.00 0.24 0.24 48 1008.8
20260502235324 47 126 0.0 0.0 0.00 0.24 0.24 50 1009.0
20260502234821 47 135 0.0 1.0 0.00 0.24 0.24 50 1008.9
20260502234318 47 135 0.0 0.0 0.00 0.24 0.24 51 1009.1
20260502233814 48 135 1.0 1.0 0.00 0.24 0.24 48 1008.9
20260502233311 48 128 1.0 1.0 0.00 0.24 0.24 48 1008.9
20260502232808 48 74 1.0 1.0 0.00 0.24 0.24 49 1008.8
20260502232305 48 180 0.0 0.0 0.00 0.24 0.24 49 1008.9
20260502231800 48 190 0.0 0.0 0.00 0.24 0.24 51 1009.0
20260502231258 49 153 0.0 1.0 0.00 0.24 0.24 48 1009.0
20260502230756 49 224 3.0 4.0 0.00 0.24 0.24 45 1008.9
20260502230254 49 193 2.0 2.0 0.00 0.24 0.24 44 1008.8
20260502225750 49 155 0.0 1.0 0.00 0.24 0.24 45 1008.8
20260502225247 49 160 0.0 1.0 0.00 0.24 0.24 48 1008.7
20260502224744 49 183 2.0 2.0 0.00 0.24 0.24 48 1008.6
20260502224240 50 184 1.0 1.0 0.00 0.24 0.24 45 1008.7
20260502223738 50 160 1.0 2.0 0.00 0.24 0.24 45 1008.6
20260502223236 50 190 1.0 2.0 0.00 0.24 0.24 46 1008.6
20260502222733 50 58 0.0 1.0 0.00 0.24 0.24 45 1008.8
20260502222230 51 200 1.0 1.0 0.00 0.24 0.24 44 1008.7
20260502221725 51 200 1.0 2.0 0.00 0.24 0.24 44 1008.6
20260502221223 51 188 2.0 2.0 0.00 0.24 0.24 43 1008.4
20260502220719 51 150 2.0 3.0 0.00 0.24 0.24 41 1008.5
20260502220215 51 205 2.0 3.0 0.00 0.24 0.24 42 1008.5
20260502215712 53 148 1.0 1.0 0.00 0.24 0.24 41 1008.5
20260502215209 52 43 2.0 3.0 0.00 0.24 0.24 41 1008.3
20260502214707 51 191 1.0 2.0 0.00 0.24 0.24 42 1008.5
20260502214204 52 74 2.0 2.0 0.00 0.24 0.24 42 1008.4
20260502213701 53 101 4.0 6.0 0.00 0.24 0.24 38 1008.4
20260502213158 52 40 0.0 1.0 0.00 0.24 0.24 43 1008.2
20260502212656 52 150 2.0 2.0 0.00 0.24 0.24 44 1008.4
20260502212154 52 117 3.0 3.0 0.00 0.24 0.24 43 1008.4
20260502211650 51 143 0.0 1.0 0.00 0.24 0.24 42 1008.3
20260502211147 51 228 0.0 1.0 0.00 0.24 0.24 42 1008.0
20260502210644 52 18 0.0 1.0 0.00 0.24 0.24 47 1008.3
20260502210141 52 212 2.0 2.0 0.00 0.24 0.24 43 1008.0
20260502205638 51 189 2.0 3.0 0.00 0.24 0.24 46 1008.2
20260502205135 52 208 4.0 4.0 0.00 0.24 0.24 42 1008.2
20260502204632 53 232 5.0 7.0 0.00 0.24 0.24 42 1008.4
20260502204129 52 173 1.0 1.0 0.00 0.24 0.24 44 1008.0
20260502203626 55 23 1.0 1.0 0.00 0.24 0.24 39 1008.2
20260502203124 55 121 1.0 1.0 0.00 0.24 0.24 40 1008.2
20260502202619 55 184 2.0 4.0 0.00 0.24 0.24 41 1008.2
20260502202117 53 238 3.0 4.0 0.00 0.24 0.24 44 1008.1
20260502201613 53 211 2.0 3.0 0.00 0.24 0.24 45 1008.1
20260502201105 55 180 2.0 2.0 0.00 0.24 0.24 42 1008.3
20260502200600 56 54 1.0 2.0 0.00 0.24 0.24 41 1008.5
20260502200058 57 208 1.0 1.0 0.00 0.24 0.24 42 1008.4
20260502195556 55 136 2.0 2.0 0.00 0.24 0.24 45 1008.3
20260502195051 55 190 6.0 7.0 0.00 0.24 0.24 40 1008.6
20260502194548 55 236 3.0 3.0 0.00 0.24 0.24 42 1008.6
20260502194044 56 240 2.0 2.0 0.00 0.24 0.24 43 1008.7
20260502193542 55 228 5.0 7.0 0.00 0.24 0.24 42 1008.7
20260502193038 55 205 2.0 2.0 0.00 0.24 0.24 39 1008.7
20260502192534 56 248 2.0 4.0 0.00 0.24 0.24 38 1008.7
20260502192032 57 203 4.0 4.0 0.00 0.24 0.24 38 1009.0
20260502191528 56 258 5.0 7.0 0.00 0.24 0.24 42 1009.1
20260502191027 55 256 3.0 4.0 0.00 0.24 0.24 44 1009.0
20260502190524 53 179 3.0 4.0 0.00 0.24 0.24 41 1009.0
20260502190021 55 258 5.0 7.0 0.00 0.24 0.24 37 1009.0
20260502185515 53 217 2.0 2.0 0.00 0.24 0.24 43 1009.1
20260502185012 53 243 4.0 6.0 0.00 0.24 0.24 40 1009.2
20260502184502 55 217 2.0 3.0 0.00 0.24 0.24 44 1009.2
20260502183958 54 194 1.0 1.0 0.00 0.24 0.24 44 1009.1
20260502183454 52 55 2.0 2.0 0.00 0.24 0.24 47 1009.2
20260502182949 53 22 2.0 3.0 0.00 0.24 0.24 42 1009.1
20260502182445 54 175 1.0 2.0 0.00 0.24 0.24 42 1008.9
20260502181942 53 237 5.0 7.0 0.00 0.24 0.24 43 1009.0
20260502181440 55 236 3.0 3.0 0.00 0.24 0.24 45 1009.1
20260502180938 55 214 2.0 3.0 0.00 0.24 0.24 43 1009.2
20260502180430 54 222 1.0 1.0 0.00 0.24 0.24 48 1008.9
20260502170348 51 178 3.0 4.0 0.00 0.24 0.24 46 1009.4
20260502164335 51 131 0.0 1.0 0.00 0.24 0.24 54 1009.4
20260502163831 52 20 6.0 7.0 0.00 0.24 0.24 47 1009.6
20260502163327 53 47 1.0 1.0 0.00 0.24 0.24 56 1009.5
20260502162825 52 144 1.0 2.0 0.00 0.24 0.24 52 1009.4
20260502162322 52 83 0.0 1.0 0.00 0.24 0.24 54 1009.4
20260502161820 52 196 3.0 4.0 0.00 0.24 0.24 48 1009.7
20260502161315 52 211 4.0 6.0 0.00 0.24 0.24 52 1009.8
20260502160813 53 120 2.0 2.0 0.00 0.24 0.24 46 1009.8
20260502160312 52 115 0.0 0.0 0.00 0.24 0.24 55 1009.8
20260502152241 51 221 2.0 3.0 0.00 0.24 0.24 58 1009.9
20260502151739 51 49 1.0 3.0 0.00 0.24 0.24 57 1010.1
20260502151236 49 205 3.0 3.0 0.00 0.24 0.24 63 1009.9
20260502150733 49 69 5.0 7.0 0.00 0.24 0.24 65 1009.9
20260502150230 49 197 1.0 1.0 0.00 0.24 0.24 68 1009.9
20260502130618 45 243 3.0 3.0 0.00 0.24 0.24 87 1010.4
20260502130116 44 121 0.0 1.0 0.00 0.24 0.24 87 1010.3
20260502123602 42 187 2.0 3.0 0.00 0.24 0.24 93 1010.3
20260502123058 42 240 1.0 2.0 0.00 0.24 0.24 98 1009.9
20260502122555 41 191 0.0 0.0 0.00 0.24 0.24 98 1009.9
20260502122052 41 175 0.0 0.0 0.00 0.24 0.24 98 1010.1
20260502121549 42 185 0.0 0.0 0.00 0.24 0.24 99 1009.9
20260502121047 41 179 1.0 2.0 0.00 0.24 0.24 99 1010.2
20260502120543 41 209 2.0 2.0 0.00 0.24 0.24 99 1010.2
20260502115538 41 168 0.0 0.0 0.00 0.24 0.24 99 1010.3
20260502115033 39 170 0.0 0.0 0.00 0.24 0.24 99 1010.2
20260502114530 39 174 0.0 0.0 0.00 0.24 0.24 99 1010.4
20260502114027 39 182 2.0 2.0 0.00 0.24 0.24 99 1010.3
20260502113525 39 181 1.0 2.0 0.00 0.24 0.24 99 1010.1
20260502113023 39 129 1.0 2.0 0.00 0.24 0.24 99 1010.5
20260502112521 39 327 1.0 1.0 0.00 0.24 0.24 99 1010.5
20260502112018 40 33 0.0 1.0 0.00 0.24 0.24 99 1010.5
20260502111515 40 135 0.0 1.0 0.00 0.24 0.24 99 1010.4
20260502111013 40 150 0.0 0.0 0.00 0.24 0.24 99 1010.1
20260502110510 40 173 4.0 4.0 0.05 0.24 0.24 99 1010.1
20260502110008 40 240 1.0 1.0 0.05 0.24 0.24 99 1009.9
20260502105505 40 237 1.0 2.0 0.00 0.23 0.23 99 1009.7
20260502105002 40 189 2.0 3.0 0.00 0.23 0.23 99 1009.8
20260502104459 41 184 2.0 2.0 0.00 0.23 0.23 99 1009.6
20260502103956 41 159 1.0 2.0 0.00 0.23 0.23 99 1009.4
20260502103454 41 205 1.0 1.0 0.00 0.23 0.23 99 1009.6
20260502102951 41 216 1.0 1.0 0.00 0.23 0.23 99 1009.4
20260502102448 41 227 0.0 0.0 0.07 0.23 0.23 99 1009.3
20260502101944 41 301 3.0 4.0 0.07 0.23 0.23 99 1009.3
20260502101443 42 192 1.0 1.0 0.00 0.22 0.22 99 1009.3
20260502100941 42 188 0.0 1.0 0.00 0.22 0.22 99 1009.0
20260502100440 42 187 0.0 1.0 0.00 0.22 0.22 99 1009.0
20260502091414 42 165 1.0 1.0 0.00 0.21 0.21 99 1008.6
20260502090911 42 165 0.0 0.0 0.00 0.21 0.21 99 1008.6
20260502090408 42 164 0.0 0.0 0.00 0.21 0.21 99 1008.5
20260502071302 43 165 0.0 0.0 0.00 0.17 0.17 99 1008.4
20260502070801 43 165 0.0 0.0 0.00 0.17 0.17 99 1008.4
20260502070258 43 165 0.0 0.0 0.05 0.17 0.17 99 1008.9
20260502065757 43 165 0.0 0.0 0.05 0.17 0.17 99 1008.9
20260502065254 43 165 0.0 0.0 0.00 0.16 0.16 99 1009.0
20260502064752 43 165 0.0 1.0 0.00 0.16 0.16 99 1009.0
20260502064250 43 165 0.0 0.0 0.00 0.16 0.16 99 1008.7
20260502063747 43 165 1.0 1.0 0.07 0.16 0.16 99 1008.8
20260502063245 43 165 0.0 0.0 0.12 0.16 0.16 99 1009.0
20260502062742 44 165 0.0 0.0 0.05 0.15 0.15 99 1009.2
20260502062239 44 165 0.0 0.0 0.07 0.14 0.14 99 1009.3
20260502061738 44 165 0.0 0.0 0.12 0.14 0.14 99 1009.1
20260502061235 44 165 0.0 0.0 0.05 0.13 0.13 99 1009.3
20260502060729 44 165 1.0 1.0 0.12 0.12 0.12 99 1009.6
20260502060221 44 165 1.0 1.0 0.12 0.12 0.12 99 1009.5
20260502055719 44 165 1.0 1.0 0.17 0.11 0.11 99 1009.5
20260502055216 44 152 0.0 0.0 0.19 0.10 0.10 99 1009.6
20260502054715 44 152 1.0 1.0 0.07 0.08 0.08 99 1009.9
20260502054212 44 152 0.0 1.0 0.05 0.07 0.07 99 1009.7
20260502053710 44 152 1.0 2.0 0.05 0.07 0.07 99 1009.9
20260502053207 44 152 1.0 1.0 0.00 0.06 0.06 99 1009.5
20260502052705 44 152 1.0 1.0 0.00 0.06 0.06 99 1009.5
20260502052203 44 152 0.0 0.0 0.07 0.06 0.06 99 1009.3
20260502051701 44 151 0.0 0.0 0.19 0.06 0.06 99 1009.3
20260502051159 44 151 0.0 0.0 0.12 0.05 0.05 99 1009.4
20260502050655 44 151 1.0 1.0 0.00 0.03 0.03 99 1009.5
20260502050151 44 151 1.0 1.0 0.00 0.03 0.03 99 1009.2
20260502045648 44 151 0.0 0.0 0.00 0.03 0.03 99 1009.2
20260502045145 44 151 0.0 0.0 0.00 0.03 0.03 99 1009.3
20260502044636 44 151 0.0 1.0 0.00 0.03 0.03 99 1009.4
20260502044132 44 151 0.0 1.0 0.07 0.03 0.03 99 1009.5
20260502043630 44 151 0.0 0.0 0.07 0.03 0.03 99 1009.5
20260502043127 44 151 0.0 0.0 0.07 0.03 0.03 99 1009.4
20260502042621 44 151 0.0 1.0 0.00 0.02 0.02 99 1009.3
20260502042118 44 151 1.0 2.0 0.00 0.02 0.02 99 1009.5
20260502041616 44 151 1.0 1.0 0.00 0.02 0.02 99 1009.3
20260502041113 44 151 1.0 1.0 0.12 0.02 0.02 99 1009.1
20260502040610 44 151 1.0 1.0 0.12 0.02 0.02 99 1009.2
20260502040107 44 151 0.0 0.0 0.00 0.03 0.03 99 1009.6
20260502035603 44 151 0.0 1.0 0.00 0.03 0.03 99 1009.5
20260502035100 44 151 1.0 1.0 0.00 0.03 0.03 99 1009.2
20260502034558 44 151 1.0 1.0 0.00 0.03 0.03 99 1009.4
20260502034056 44 151 1.0 1.0 0.00 0.03 0.03 98 1009.2
20260502033554 44 151 1.0 1.0 0.00 0.03 0.03 98 1009.1
20260502033051 44 151 1.0 1.0 0.00 0.03 0.03 98 1009.0
20260502032547 44 151 1.0 1.0 0.05 0.03 0.03 97 1009.2
20260502032044 44 151 0.0 1.0 0.05 0.03 0.03 97 1009.1
20260502031541 45 151 1.0 1.0 0.00 0.02 0.02 97 1009.2
20260502031039 45 152 0.0 0.0 0.00 0.02 0.02 97 1009.3
20260502030538 45 152 0.0 0.0 0.00 0.02 0.02 97 1009.4
20260502030035 45 158 0.0 1.0 0.00 0.02 0.02 97 1009.6
20260502025532 45 159 1.0 1.0 0.00 0.02 0.02 96 1009.5
20260502025031 45 158 1.0 1.0 0.00 0.02 0.02 96 1009.3
20260502024527 45 137 1.0 2.0 0.07 0.02 0.02 96 1009.3
20260502024026 45 159 0.0 0.0 0.07 0.02 0.02 96 1009.7
20260502023523 45 160 1.0 1.0 0.00 0.01 0.01 96 1010.1
20260502023020 45 160 0.0 0.0 0.00 0.01 0.01 94 1009.6
20260502022517 45 160 0.0 0.0 0.00 0.01 0.01 94 1009.8
20260502022014 46 160 0.0 0.0 0.00 0.01 0.01 93 1009.7
20260502021512 46 160 0.0 1.0 0.05 0.01 0.01 91 1009.7
20260502021008 47 160 0.0 0.0 0.05 0.01 0.01 89 1009.7
20260502020506 47 160 0.0 0.0 0.05 0.01 0.01 86 1009.9
20260502020003 47 154 0.0 0.0 0.00 0.00 0.00 85 1010.2
20260502015501 47 166 1.0 2.0 0.00 0.00 0.00 85 1009.9
20260502014957 47 128 0.0 1.0 0.00 0.00 0.00 87 1009.6
20260502014454 47 128 0.0 0.0 0.00 0.00 0.00 88 1009.7
20260502013950 47 128 0.0 0.0 0.00 0.00 0.00 87 1009.4
20260502013446 47 128 0.0 0.0 0.00 0.00 0.00 85 1009.5
20260502012942 48 140 0.0 0.0 0.00 0.00 0.00 83 1009.3
20260502012440 48 140 0.0 0.0 0.00 0.00 0.00 81 1009.4
20260502011938 48 140 0.0 0.0 0.00 0.00 0.00 80 1009.2
20260502011433 48 140 0.0 0.0 0.00 0.00 0.00 77 1009.0
20260502010931 48 140 0.0 0.0 0.00 0.00 0.00 77 1009.1
20260502010427 48 140 0.0 0.0 0.00 0.00 0.00 77 1009.0
20260502005924 48 140 0.0 0.0 0.00 0.00 0.00 76 1008.9
20260502005422 48 140 0.0 1.0 0.00 0.00 0.00 75 1008.9
20260502004920 48 140 1.0 1.0 0.00 0.00 0.00 76 1008.9
20260502004415 48 140 0.0 0.0 0.00 0.00 0.00 76 1009.0
20260502003913 48 140 0.0 1.0 0.00 0.00 0.00 77 1008.8
20260502003410 48 140 0.0 0.0 0.00 0.00 0.00 76 1008.9
20260502002905 48 140 0.0 0.0 0.00 0.00 0.00 76 1008.9
20260502002403 49 140 0.0 0.0 0.00 0.00 0.00 74 1009.0